Miscellaneous Local Product
Issued by NWS North Platte, NE

Home | Current Version | Previous Version | Graphics & Text | Print | Product List | Glossary On
Versions: 1 2 3 4 5 6 7 8 9 10 11 12 13 14 15 16 17 18 19 20 21 22 23 24 25 26 27 28 29 30 31 32 33 34 35 36 37 38 39 40 41 42 43 44 45 46 47 48 49 50
000
AXUS43 KLBF 250010
MISLBF


WESTERN AND NORTH CENTRAL NEBRASKA HOURLY WEATHER ROUNDUP
NATIONAL WEATHER SERVICE NORTH PLATTE NE
700 PM CDT SUN MAY 24 2015

***STATIONS NOT REPORTING VARIABLES SUCH AS SKY/WEATHER OR
PRESSURE ARE PROVIDED BY THE NEBRASKA DEPARTMENT OF
ROADS...RAWS...AND APRS NETWORKS...AND ARE NOT UNDER
NATIONAL WEATHER SERVICE QUALITY CONTROL***

...OBSERVATIONS IN AND NEAR THE EASTERN PANHANDLE OF NEBRASKA...

CITY           SKY/WX    TMP DP  RH WIND       PRES   REMARKS
PINE RIDGE     CLOUDY    61  53  75 NE15G22   29.80S
CHADRON        MOSUNNY   60  54  80 NE12      29.79S
ALLIANCE       PTSUNNY   68  49  50 SE8       29.76F
SIDNEY         LGT RAIN  51  47  86 S21       29.84S FOG
WHITECLAY        N/A     60  53  79 N13         N/A
BIG SPRINGS      N/A     68  55  63 CALM        N/A
$$

...OBSERVATIONS IN NORTH CENTRAL NEBRASKA...

CITY           SKY/WX    TMP DP  RH WIND       PRES   REMARKS
VALENTINE      PTSUNNY   64  57  78 E15       29.79F
THEDFORD       PTSUNNY   68  57  66 E10       29.79S
AINSWORTH      CLOUDY    64  61  91 E10       29.80F
O`NEILL        CLOUDY    63  60  90 N5        29.81F
ORD            CLOUDY    65  57  75 CALM      29.78F
BROKEN BOW     PTSUNNY   66  58  75 E12       29.78F
BROWNLEE         N/A     67  56  66 E13         N/A
VALENTINE NWR    N/A     67  57  71 E9G16       N/A
SPRINGVIEW       N/A     63  59  86 E3G12       N/A
HALSEY           N/A     68  55  63 E9          N/A
BREWSTER         N/A     71  60  68 E13         N/A
ROSE             N/A     64  63  94 E10         N/A
NEWPORT          N/A     61  60  96 NE9         N/A
SARGENT          N/A     66  59  78 E3          N/A
COMSTOCK         N/A     71  64  80 E6          N/A
EWING            N/A     61  59  94 CALM        N/A
$$

...OBSERVATIONS IN SOUTHWEST NEBRASKA AND FAR NORTHEAST COLORADO...

CITY           SKY/WX    TMP DP  RH WIND       PRES   REMARKS
WRAY           TSTM      49  49 100 NW12      29.80R
IMPERIAL       LGT RAIN  64  57  78 E17       29.73F
OGALLALA       LGT RAIN N/A N/A N/A MISG        N/A
NORTH PLATTE   MOSUNNY   67  56  67 E18       29.78R
MCCOOK         PTSUNNY   69  58  67 E14G25    29.76S
LEXINGTON      CLOUDY    65  59  83 E12       29.78F
PAXTON           N/A     67  58  73 E9          N/A
GOTHENBURG       N/A     65  55  69 E7          N/A
CALLAWAY         N/A     66  60  81 SE9         N/A
$$

...NORTH PLATTE AREA...

CITY           SKY/WX    TMP DP  RH WIND       PRES   REMARKS
AIRPORT        MOSUNNY   67  56  67 E18       29.78R
DOWNTOWN         N/A     66  57  72 E8          N/A
$$

...SOME WEATHER OBSERVATIONS FROM AROUND THE REGION...

CITY           SKY/WX    TMP DP  RH WIND       PRES   REMARKS
DENVER         PTSUNNY   57  40  52 W7        29.82S
LARAMIE        CLOUDY    43  36  76 MISG      29.91F
CHEYENNE       PTSUNNY   53  41  63 E8        29.85F
SCOTTSBLUFF    CLOUDY    65  46  50 S7        29.77F
RAPID CITY     CLOUDY    56  54  93 NE12      29.86S
PIERRE         CLOUDY    59  57  93 E14       29.83F FOG
WINNER         CLOUDY    62  58  86 E9        29.81F
SIOUX FALLS    LGT RAIN  61  59  93 NE8       29.79F
OMAHA          CLOUDY    70  61  73 SW5       29.78F
GRAND ISLAND   CLOUDY    67  58  72 S6        29.80F
KANSAS CITY    LGT RAIN  67  64  90 SW6       29.84F
WICHITA        LGT RAIN  64  61  90 S12       29.84S
HAYS           CLOUDY    64  55  72 S10       29.79S
LIBERAL        MOSUNNY   73  57  56 SE16      29.75F
GOODLAND       PTSUNNY   66  54  65 SE15      29.76R
$$



USA.gov is the U.S. government's official web portal to all federal, state and local government web resources and services.